STARLINK-1140 (45050 NORAD) Tracking and Keplerian Element Data

This shows tracking and keplerian element data for the satellite.

Feedback or suggestion? Click here.




ElementValue
Catalog45050
NameSTARLINK-1140
Epoch Orbit161
Epoch Day93.91667824
Epoch Year2020
RAAN293.639
Inclination53.0005
Eccentricity0.0001493
Argument of Perigee74.2466
Mean Anonmoly50.0458
Mean Motion15.05567909
Decay Rate0.0002808
L11 45050U 20006G 20093.91667824 .00028080 00000-0 19393-2 0 9994
L22 45050 53.0005 293.6390 0001493 74.2466 50.0458 15.05567909 1614

Live tracking and technical data element details for STARLINK-1140 (NORAD 45050). STARLINK-1140 can be tracked NOW for your location showing map with azimuth and elevation plus other details from your city location.

Track the satellite on the map from your city or location and see movement details for azimuth, elevation, latitude, longitude, range, height, and movement on the map or in text.







IsCatalogInMostPopularTable: catalog: 45050, numindb: 14
Update: records affected: 1



GetName: 45050 STARLINK-1140

Hit Count: updated at: Fri, 10 Apr 2020 17:46:15 GMT